Archival Weather

Chicago O'Hare International

Chicago, Illinois (KORD)

Report from: Sunday, March 6, 2022 10:51 PM CST
Current time: Tuesday, June 25, 2024 3:12 AM CDT

Current weather – Weather history – Daily summaries
Weather forecast

Temperature3.3°C (37.9°F)
Wind chill1.3°C (34.4°F)
Dew point-2.2°C (28.0°F)
Winds 4 kts (2.1 m/s, 4.6 mph) North-Northeast (30°)
Visibility10 mi. (16.1 km)
Clouds Ceiling: Broken clouds 2,700 ft. (823 m)
Overcast 16,000 ft. (4,877 m)
Altimeter30.00 in.Hg (1016 mB)
Relative humidity67 %
Density altitude-1,453 ft. (-443 m)
Sea-level pressure101.7 kPa (1017 mB, 30.02 in.Hg)
Remarks System requires maintenance
Automated weather observing station with precipitation discriminator
Virga observed
Flight conditions Marginal Visual Meteorological Conditions
Raw dataKORD 070451Z 03004KT 10SM BKN027 OVC160 03/M02 A3000 RMK AO2 SLP166 VIRGA ALQDS T00331022 $
An unhandled exception has occurred. See browser dev tools for details. Reload 🗙